GW2464 Weather Reports


Display with metric or nautical units.
time (UTC)temp
F
wind
direction
speed
MPH
gust
MPH
rain 1hr
in
rain 24hr
in
rain mn
in
humidity
%
barometer
mb
20260503003418 42 343 1.0 1.0 0.00 0.03 0.03 65 1012.2
20260503002915 43 335 2.0 2.0 0.00 0.03 0.03 64 1012.2
20260503002412 43 328 1.0 1.0 0.00 0.03 0.03 63 1012.2
20260503001908 43 0 1.0 2.0 0.00 0.03 0.03 64 1011.9
20260503001405 43 327 1.0 2.0 0.00 0.03 0.03 63 1012.1
20260503000903 43 301 2.0 2.0 0.00 0.03 0.03 62 1011.8
20260503000400 43 335 2.0 2.0 0.00 0.03 0.03 60 1012.0
20260502235856 44 281 3.0 3.0 0.00 0.03 0.03 62 1011.9
20260502235353 44 336 2.0 2.0 0.00 0.03 0.03 60 1012.0
20260502234851 44 328 1.0 1.0 0.00 0.03 0.03 61 1012.0
20260502234347 44 320 3.0 3.0 0.00 0.03 0.03 60 1012.0
20260502233844 44 311 2.0 2.0 0.00 0.03 0.03 60 1011.9
20260502233340 44 327 1.0 1.0 0.00 0.03 0.03 59 1011.8
20260502232837 44 239 2.0 2.0 0.00 0.03 0.03 57 1011.9
20260502232334 45 351 0.0 1.0 0.00 0.03 0.03 59 1011.9
20260502231830 45 317 2.0 2.0 0.00 0.03 0.03 56 1012.0
20260502231328 45 344 1.0 1.0 0.00 0.03 0.03 56 1011.8
20260502230826 45 326 2.0 2.0 0.00 0.03 0.03 56 1011.7
20260502230324 45 308 2.0 2.0 0.00 0.03 0.03 56 1011.7
20260502225820 45 302 3.0 3.0 0.00 0.03 0.03 55 1011.7
20260502225317 46 126 2.0 2.0 0.00 0.03 0.03 57 1011.4
20260502224814 46 6 3.0 5.0 0.00 0.03 0.03 54 1011.6
20260502224310 46 341 1.0 2.0 0.00 0.03 0.03 54 1011.5
20260502223808 46 332 2.0 2.0 0.00 0.03 0.03 55 1011.5
20260502223306 46 325 1.0 2.0 0.00 0.03 0.03 55 1011.6
20260502222803 46 336 3.0 5.0 0.00 0.03 0.03 53 1011.5
20260502222300 46 312 3.0 3.0 0.00 0.03 0.03 52 1011.5
20260502221755 46 306 2.0 2.0 0.00 0.03 0.03 56 1011.5
20260502221252 46 294 4.0 5.0 0.00 0.03 0.03 53 1011.4
20260502220749 46 312 3.0 3.0 0.00 0.03 0.03 52 1011.4
20260502220245 47 317 3.0 3.0 0.00 0.03 0.03 51 1011.5
20260502215742 47 110 3.0 5.0 0.00 0.03 0.03 52 1011.5
20260502215239 47 281 2.0 2.0 0.00 0.03 0.03 51 1011.5
20260502214736 47 316 2.0 3.0 0.00 0.03 0.03 51 1011.3
20260502214235 48 303 2.0 2.0 0.00 0.03 0.03 48 1011.4
20260502213731 49 255 2.0 2.0 0.00 0.03 0.03 51 1011.1
20260502213228 48 340 3.0 3.0 0.00 0.03 0.03 49 1011.3
20260502212726 48 345 3.0 3.0 0.00 0.03 0.03 48 1011.0
20260502212224 47 357 1.0 2.0 0.00 0.03 0.03 49 1011.1
20260502211720 48 299 3.0 3.0 0.00 0.03 0.03 49 1011.2
20260502211217 48 329 2.0 2.0 0.00 0.03 0.03 49 1011.0
20260502210714 48 279 1.0 2.0 0.00 0.03 0.03 53 1011.1
20260502210211 48 333 1.0 2.0 0.00 0.03 0.03 49 1011.1
20260502205708 48 280 4.0 6.0 0.00 0.03 0.03 50 1011.3
20260502205204 50 286 5.0 7.0 0.00 0.03 0.03 47 1011.2
20260502204701 49 245 4.0 5.0 0.00 0.03 0.03 48 1011.4
20260502204159 48 281 4.0 5.0 0.00 0.03 0.03 49 1011.1
20260502203656 49 303 7.0 9.0 0.00 0.03 0.03 48 1011.2
20260502203155 49 217 1.0 2.0 0.00 0.03 0.03 51 1011.1
20260502202648 48 352 2.0 2.0 0.00 0.03 0.03 51 1011.3
20260502202147 48 220 3.0 3.0 0.00 0.03 0.03 49 1011.5
20260502201644 48 259 3.0 5.0 0.00 0.03 0.03 49 1011.3
20260502201140 48 208 6.0 7.0 0.00 0.03 0.03 49 1011.4
20260502200636 50 238 5.0 6.0 0.00 0.03 0.03 51 1011.3
20260502200133 49 289 5.0 6.0 0.00 0.03 0.03 48 1011.5
20260502195631 48 298 4.0 5.0 0.00 0.03 0.03 50 1011.7
20260502195127 48 254 5.0 5.0 0.00 0.03 0.03 49 1011.7
20260502194624 48 298 3.0 3.0 0.00 0.03 0.03 52 1011.7
20260502194121 48 319 5.0 6.0 0.00 0.03 0.03 50 1011.8
20260502193617 48 287 3.0 5.0 0.00 0.03 0.03 48 1012.0
20260502193114 49 302 3.0 3.0 0.00 0.03 0.03 48 1012.0
20260502192609 48 1 0.0 1.0 0.00 0.03 0.03 48 1011.9
20260502192107 48 313 3.0 3.0 0.00 0.03 0.03 51 1012.4
20260502191604 49 353 2.0 2.0 0.00 0.03 0.03 49 1012.1
20260502191102 49 283 5.0 5.0 0.00 0.03 0.03 51 1012.2
20260502190559 49 249 6.0 7.0 0.00 0.03 0.03 47 1012.1
20260502190056 49 254 7.0 9.0 0.00 0.03 0.03 48 1012.4
20260502185550 51 243 5.0 7.0 0.00 0.03 0.03 47 1012.2
20260502185047 51 192 3.0 3.0 0.00 0.03 0.03 46 1012.0
20260502184538 49 197 4.0 7.0 0.00 0.03 0.03 51 1012.1
20260502184034 48 231 5.0 6.0 0.00 0.03 0.03 48 1012.1
20260502183530 49 325 5.0 6.0 0.00 0.03 0.03 46 1012.1
20260502183027 49 310 3.0 3.0 0.00 0.03 0.03 49 1012.3
20260502182522 48 285 2.0 2.0 0.00 0.03 0.03 49 1012.1
20260502182018 47 268 4.0 5.0 0.00 0.03 0.03 52 1012.2
20260502181516 47 334 1.0 2.0 0.00 0.03 0.03 52 1012.2
20260502181015 48 274 4.0 5.0 0.00 0.03 0.03 49 1012.3
20260502180511 49 303 4.0 6.0 0.00 0.03 0.03 52 1012.1
20260502170430 47 270 4.0 5.0 0.00 0.03 0.03 56 1012.3
20260502163914 47 195 6.0 8.0 0.00 0.03 0.03 52 1012.2
20260502163410 48 7 2.0 2.0 0.00 0.03 0.03 55 1012.2
20260502162908 47 290 3.0 3.0 0.00 0.03 0.03 58 1012.4
20260502162404 48 284 3.0 3.0 0.00 0.03 0.03 55 1012.5
20260502161901 48 267 3.0 3.0 0.00 0.03 0.03 55 1012.6
20260502161357 48 1 3.0 5.0 0.00 0.03 0.03 58 1012.8
20260502160855 47 302 3.0 3.0 0.00 0.03 0.03 58 1012.6
20260502160353 49 291 5.0 6.0 0.00 0.03 0.03 57 1012.4
20260502152334 47 300 3.0 3.0 0.00 0.03 0.03 65 1012.8
20260502151832 49 350 3.0 5.0 0.00 0.03 0.03 58 1012.6
20260502151328 47 338 4.0 5.0 0.00 0.03 0.03 60 1012.4
20260502150826 46 35 1.0 2.0 0.00 0.03 0.03 64 1012.4
20260502150322 47 272 5.0 6.0 0.00 0.03 0.03 60 1012.6
20260502130710 42 301 2.0 3.0 0.00 0.03 0.03 82 1013.0
20260502130208 42 252 7.0 9.0 0.00 0.03 0.03 85 1013.2
20260502123654 40 3 1.0 1.0 0.00 0.03 0.03 93 1012.9
20260502123150 40 337 1.0 1.0 0.00 0.03 0.03 93 1013.0
20260502122647 40 312 1.0 2.0 0.00 0.03 0.03 92 1012.9
20260502122143 40 356 1.0 1.0 0.00 0.03 0.03 93 1013.0
20260502121642 40 254 2.0 2.0 0.00 0.03 0.03 93 1012.5
20260502121139 40 316 2.0 2.0 0.00 0.03 0.03 95 1012.8
20260502120635 39 348 2.0 2.0 0.00 0.03 0.03 95 1012.8
20260502120132 39 347 1.0 1.0 0.00 0.03 0.03 96 1012.4
20260502115630 39 320 1.0 1.0 0.00 0.03 0.03 96 1012.9
20260502115126 39 51 1.0 1.0 0.00 0.03 0.03 96 1012.9
20260502114622 39 313 2.0 2.0 0.00 0.03 0.03 96 1013.0
20260502114120 39 277 2.0 2.0 0.00 0.03 0.03 96 1012.9
20260502113617 39 304 3.0 3.0 0.00 0.03 0.03 96 1012.9
20260502113115 39 303 4.0 5.0 0.00 0.03 0.03 96 1013.1
20260502112613 39 306 3.0 3.0 0.00 0.03 0.03 96 1013.3
20260502112110 38 276 3.0 3.0 0.00 0.03 0.03 96 1012.9
20260502111608 38 332 1.0 1.0 0.00 0.03 0.03 97 1013.0
20260502111105 38 295 1.0 2.0 0.00 0.03 0.03 97 1012.6
20260502110602 38 347 2.0 2.0 0.00 0.03 0.03 96 1012.9
20260502110059 38 328 1.0 1.0 0.00 0.03 0.03 96 1013.1
20260502105557 38 346 1.0 1.0 0.00 0.03 0.03 96 1012.4
20260502105054 38 98 3.0 5.0 0.00 0.03 0.03 96 1012.6
20260502104551 38 347 1.0 1.0 0.00 0.03 0.03 96 1012.6
20260502104048 38 350 2.0 2.0 0.00 0.03 0.03 96 1012.4
20260502103546 38 350 0.0 0.0 0.00 0.03 0.03 96 1012.4
20260502103044 38 33 3.0 3.0 0.00 0.03 0.03 96 1012.5
20260502102540 38 358 0.0 0.0 0.00 0.03 0.03 96 1012.8
20260502102037 38 347 1.0 1.0 0.00 0.03 0.03 97 1012.6
20260502101535 38 357 2.0 2.0 0.00 0.03 0.03 97 1012.2
20260502101033 38 349 1.0 1.0 0.00 0.03 0.03 97 1012.3
20260502100531 38 314 1.0 1.0 0.00 0.03 0.03 97 1012.1
20260502091506 39 320 1.0 1.0 0.00 0.03 0.03 99 1011.7
20260502091003 39 328 1.0 1.0 0.00 0.03 0.03 99 1011.4
20260502090500 39 352 0.0 1.0 0.00 0.03 0.03 99 1011.4
20260502071355 41 313 2.0 2.0 0.00 0.03 0.03 99 1011.1
20260502070853 41 335 1.0 1.0 0.00 0.03 0.03 99 1010.9
20260502070350 41 273 2.0 2.0 0.00 0.03 0.03 99 1011.1
20260502065849 41 327 1.0 1.0 0.00 0.03 0.03 99 1011.2
20260502065347 41 340 2.0 2.0 0.00 0.03 0.03 99 1011.3
20260502064844 42 332 3.0 3.0 0.00 0.03 0.03 99 1011.2
20260502064342 42 341 1.0 1.0 0.00 0.03 0.03 99 1011.1
20260502063839 42 343 0.0 0.0 0.00 0.03 0.03 99 1011.2
20260502063337 42 339 1.0 1.0 0.00 0.03 0.03 99 1011.3
20260502062834 42 310 1.0 1.0 0.00 0.03 0.03 99 1011.3
20260502062331 42 343 0.0 0.0 0.00 0.03 0.03 99 1011.2
20260502061830 42 345 0.0 0.0 0.00 0.03 0.03 99 1011.2
20260502061328 42 353 0.0 0.0 0.00 0.03 0.03 99 1011.2
20260502060823 42 333 1.0 1.0 0.00 0.03 0.03 99 1011.4
20260502060318 42 357 0.0 0.0 0.00 0.03 0.03 99 1011.3
20260502055816 42 357 0.0 0.0 0.00 0.03 0.03 99 1011.6
20260502055314 42 13 1.0 1.0 0.00 0.03 0.03 99 1011.4
20260502054814 42 19 1.0 1.0 0.00 0.03 0.03 99 1011.7
20260502054311 42 317 1.0 1.0 0.05 0.03 0.03 99 1011.6
20260502053808 42 332 0.0 1.0 0.00 0.02 0.02 99 1011.5
20260502053305 42 331 1.0 1.0 0.00 0.02 0.02 99 1011.4
20260502052803 42 4 0.0 0.0 0.00 0.02 0.02 99 1011.5
20260502052300 42 349 0.0 0.0 0.00 0.02 0.02 99 1011.3
20260502051758 43 343 0.0 0.0 0.00 0.02 0.02 99 1011.6
20260502051257 42 13 1.0 1.0 0.00 0.02 0.02 99 1011.7
20260502050752 42 332 1.0 1.0 0.00 0.02 0.02 99 1011.6
20260502050248 42 342 0.0 0.0 0.00 0.02 0.02 99 1011.7
20260502045746 42 341 0.0 0.0 0.00 0.02 0.02 99 1011.5
20260502045243 42 346 0.0 0.0 0.00 0.02 0.02 99 1011.6
20260502044739 42 344 0.0 0.0 0.00 0.02 0.02 99 1011.6
20260502044235 42 352 0.0 0.0 0.00 0.02 0.02 99 1011.6
20260502043733 42 351 0.0 0.0 0.07 0.02 0.02 99 1011.7
20260502043231 42 351 0.0 0.0 0.07 0.02 0.02 99 1011.6
20260502042730 42 351 0.0 0.0 0.05 0.01 0.01 99 1011.5
20260502042228 42 351 0.0 0.0 0.05 0.01 0.01 99 1011.7
20260502041725 42 351 0.0 0.0 0.00 0.00 0.00 99 1011.7
20260502041222 43 2 0.0 0.0 0.00 0.00 0.00 99 1011.5
20260502040719 42 351 0.0 0.0 0.00 0.00 0.00 99 1011.8
20260502040216 42 8 0.0 0.0 0.00 0.00 0.00 99 1011.6
20260502035712 42 9 0.0 0.0 0.07 0.08 0.08 99 1011.7
20260502035209 42 10 0.0 1.0 0.07 0.08 0.08 99 1011.7
20260502034707 42 6 0.0 0.0 0.00 0.07 0.07 99 1011.6
20260502034205 42 10 0.0 0.0 0.07 0.07 0.07 99 1011.7
20260502033702 42 341 0.0 1.0 0.07 0.07 0.07 99 1011.8
20260502033200 42 351 0.0 0.0 0.00 0.06 0.06 99 1011.7
20260502032656 42 351 0.0 0.0 0.00 0.06 0.06 99 1011.7
20260502032152 42 351 0.0 0.0 0.00 0.06 0.06 99 1011.6
20260502031650 42 346 0.0 0.0 0.00 0.06 0.06 99 1011.7
20260502031148 42 344 0.0 1.0 0.00 0.06 0.06 99 1011.7
20260502030647 42 359 0.0 0.0 0.00 0.06 0.06 99 1011.3
20260502030144 42 359 0.0 0.0 0.00 0.06 0.06 99 1011.7
20260502025641 42 5 0.0 0.0 0.00 0.06 0.06 99 1011.7
20260502025139 42 6 0.0 0.0 0.00 0.06 0.06 99 1011.9
20260502024637 42 359 0.0 1.0 0.00 0.06 0.06 99 1011.8
20260502024134 42 7 0.0 0.0 0.00 0.06 0.06 99 1011.8
20260502023633 43 352 0.0 0.0 0.00 0.06 0.06 99 1012.0
20260502023129 43 351 1.0 1.0 0.00 0.06 0.06 99 1011.9
20260502022626 43 352 0.0 0.0 0.05 0.06 0.06 99 1012.0
20260502022124 43 352 0.0 0.0 0.05 0.06 0.06 99 1011.9
20260502021621 43 352 0.0 0.0 0.00 0.05 0.05 99 1012.2
20260502021118 43 346 0.0 0.0 0.00 0.05 0.05 99 1012.2
20260502020615 43 347 0.0 1.0 0.00 0.05 0.05 99 1012.2
20260502020112 43 358 0.0 0.0 0.00 0.05 0.05 99 1012.1
20260502015610 43 15 1.0 1.0 0.00 0.05 0.05 99 1012.2
20260502015106 43 13 1.0 1.0 0.00 0.05 0.05 99 1012.3
20260502014603 43 5 0.0 0.0 0.00 0.05 0.05 99 1012.3
20260502014100 43 3 0.0 0.0 0.07 0.05 0.05 99 1012.2
20260502013555 43 352 0.0 0.0 0.07 0.05 0.05 99 1012.1
20260502013052 43 327 1.0 1.0 0.05 0.04 0.04 99 1012.1
20260502012549 43 336 1.0 1.0 0.12 0.04 0.04 99 1012.3
20260502012047 43 357 0.0 0.0 0.07 0.03 0.03 99 1012.1
20260502011544 43 285 2.0 2.0 0.05 0.02 0.02 99 1012.5
20260502011040 43 265 2.0 2.0 0.05 0.02 0.02 99 1012.2
20260502010537 43 288 1.0 1.0 0.00 0.01 0.01 99 1012.0
20260502010033 44 347 1.0 1.0 0.00 0.01 0.01 98 1011.6
20260502005531 44 337 0.0 1.0 0.00 0.01 0.01 98 1011.8
20260502005029 44 351 0.0 0.0 0.00 0.01 0.01 98 1011.8
20260502004524 44 14 0.0 0.0 0.07 0.01 0.01 97 1012.0
20260502004021 44 354 0.0 0.0 0.00 0.00 0.00 97 1012.1
20260502003519 44 333 1.0 1.0 0.00 0.00 0.00 96 1011.8